MST,Max TemperatureF,Mean TemperatureF,Min TemperatureF,Max Dew PointF,MeanDew PointF,Min DewpointF,Max Humidity, Mean Humidity, Min Humidity, Max Sea Level PressureIn, Mean Sea Level PressureIn, Min Sea Level PressureIn, Max VisibilityMiles, Mean VisibilityMiles, Min VisibilityMiles, Max Wind SpeedMPH, Mean Wind SpeedMPH, Max Gust SpeedMPH,PrecipitationIn, CloudCover, Events, WindDirDegrees
2012-11-1,79,57,34,19,12,8,35,21,7,30.15,30.02,29.92,10,10,10,20,8,25,0.00,0,,164
2012-11-2,72,54,36,24,19,14,40,28,16,30.12,29.99,29.91,10,10,10,13,5,14,0.00,0,,122
2012-11-3,71,51,30,24,20,14,58,38,17,30.18,30.12,30.02,10,10,10,10,2,15,0.00,0,,139
2012-11-4,71,50,29,19,15,10,53,33,12,30.33,30.25,30.18,10,10,10,9,3,14,0.00,0,,207
2012-11-5,72,51,29,21,15,6,36,25,14,30.37,30.26,30.18,10,10,10,10,3,13,0.00,0,,243
2012-11-6,72,51,30,23,17,11,43,29,15,30.33,30.22,30.15,10,10,10,7,2,9,0.00,0,,145
2012-11-7,78,56,33,21,18,13,44,28,11,30.25,30.09,29.95,10,10,10,12,5,15,0.00,0,,138
2012-11-8,75,57,39,39,25,18,59,36,12,30.02,29.90,29.82,10,10,9,38,12,44,T,2,Rain,171
2012-11-9,67,57,46,43,36,29,86,57,27,29.84,29.72,29.59,10,7,1,49,22,62,0.20,4,Rain,186
2012-11-10,47,39,30,39,26,19,83,59,34,30.01,29.84,29.63,10,10,8,32,13,38,0.07,4,Rain,242
2012-11-11,45,33,21,20,14,2,77,47,16,30.46,30.26,30.03,10,10,10,15,6,20,0.00,0,,289
2012-11-12,49,32,15,18,13,3,84,50,15,30.58,30.45,30.35,10,10,10,9,3,13,0.00,0,,218
2012-11-13,52,35,17,16,13,10,80,50,19,30.47,30.38,30.28,10,10,10,8,1,9,0.00,0,,257
2012-11-14,56,37,18,21,18,13,77,51,24,30.43,30.31,30.21,10,10,10,10,3,14,0.00,0,,181
2012-11-15,52,37,21,26,21,17,84,56,28,30.38,30.29,30.22,10,10,10,7,1,7,0.00,0,,252
2012-11-16,71,51,30,29,24,20,72,44,15,30.23,30.14,30.01,10,10,10,16,6,21,0.00,2,,204
2012-11-17,68,51,33,35,29,22,64,45,26,30.24,30.10,30.00,10,10,10,18,7,25,0.00,1,,161
2012-11-18,66,49,32,35,31,27,82,54,26,30.17,30.10,30.04,10,10,10,16,7,21,0.00,0,,208
2012-11-19,63,46,29,32,25,17,85,52,19,30.36,30.27,30.17,10,10,10,12,4,13,0.00,0,,131
2012-11-20,66,47,28,23,18,13,69,42,14,30.39,30.25,30.12,10,10,10,10,4,13,0.00,0,,116
2012-11-21,69,49,29,29,21,13,53,37,20,30.24,30.12,30.00,10,10,10,14,5,18,0.00,0,,157
2012-11-22,65,46,26,27,22,19,75,47,19,30.32,30.21,30.09,10,10,10,9,4,12,0.00,0,,151
2012-11-23,62,43,24,21,18,14,68,45,22,30.48,30.38,30.32,10,10,10,8,2,9,0.00,0,,210
2012-11-24,65,44,23,21,17,13,63,41,19,30.42,30.26,30.12,10,10,10,10,4,14,0.00,0,,113
2012-11-25,69,49,28,23,20,15,58,37,16,30.15,30.02,29.89,10,10,10,13,5,16,0.00,0,,154
2012-11-26,64,46,27,23,18,13,63,40,17,30.25,30.13,29.97,10,10,10,12,4,13,0.00,0,,39
2012-11-27,65,43,21,20,16,10,62,40,18,30.42,30.30,30.21,10,10,10,9,3,13,0.00,0,,138
2012-11-28,68,48,28,26,21,16,58,39,19,30.35,30.22,30.08,10,10,10,15,6,18,0.00,0,,156
2012-11-29,69,49,28,32,26,20,69,44,19,30.25,30.15,30.07,10,10,10,17,7,21,0.00,0,,157
2012-11-30,70,52,33,33,29,24,70,44,18,30.20,30.11,29.98,10,10,10,17,8,23,0.00,0,,161